AAL1040 KBOS-KACK

Flight info

Callsign AAL1040
Flight time 0h 31m
Altitude 14000
Route LOGAN4 LFV
Aircraft B738/M-SDE2E3FGHIRWXY/LB1

Departure

Time 2026-05-05 03:29
Airport Boston Logan International Airport (KBOS)

Arrival

Time 2026-05-05 04:00
Airport Nantucket Memorial Airport (KACK)
Time Latitude Longitude Altitude Speed Heading
2026-05-05 03:01 42.36038 -71.01909 24 ft 0 kts 30°
2026-05-05 03:15 42.36028 -71.01917 28 ft 3 kts 29°
2026-05-05 03:15 42.36010 -71.01931 29 ft 3 kts 31°
2026-05-05 03:15 42.35993 -71.01945 28 ft 3 kts 45°
2026-05-05 03:15 42.35984 -71.01962 29 ft 3 kts 97°
2026-05-05 03:16 42.35985 -71.01970 29 ft 0 kts 120°
2026-05-05 03:17 42.35981 -71.01962 29 ft 3 kts 120°
2026-05-05 03:18 42.35968 -71.01932 25 ft 5 kts 120°
2026-05-05 03:18 42.35950 -71.01889 26 ft 6 kts 119°
2026-05-05 03:18 42.35930 -71.01835 24 ft 7 kts 114°
2026-05-05 03:18 42.35914 -71.01767 25 ft 8 kts 103°
2026-05-05 03:19 42.35926 -71.01638 26 ft 10 kts 36°
2026-05-05 03:19 42.35992 -71.01600 26 ft 11 kts 19°
2026-05-05 03:19 42.36093 -71.01551 26 ft 13 kts 20°
2026-05-05 03:20 42.36179 -71.01509 28 ft 14 kts 20°
2026-05-05 03:20 42.36242 -71.01478 26 ft 15 kts 20°
2026-05-05 03:20 42.36340 -71.01429 24 ft 16 kts 20°
2026-05-05 03:20 42.36445 -71.01377 26 ft 17 kts 20°
2026-05-05 03:21 42.36552 -71.01314 28 ft 16 kts 24°
2026-05-05 03:21 42.36650 -71.01267 27 ft 14 kts 17°
2026-05-05 03:21 42.36729 -71.01243 26 ft 11 kts
2026-05-05 03:21 42.36795 -71.01276 26 ft 10 kts 335°
2026-05-05 03:22 42.36862 -71.01250 27 ft 11 kts 37°
2026-05-05 03:22 42.36924 -71.01178 24 ft 12 kts 40°
2026-05-05 03:22 42.36997 -71.01107 24 ft 14 kts 29°
2026-05-05 03:22 42.37081 -71.01051 26 ft 13 kts 25°
2026-05-05 03:23 42.37163 -71.01002 27 ft 13 kts 25°
2026-05-05 03:23 42.37240 -71.00949 26 ft 12 kts 32°
2026-05-05 03:23 42.37302 -71.00873 27 ft 7 kts 51°
2026-05-05 03:23 42.37304 -71.00866 28 ft 1 kts 73°
2026-05-05 03:24 42.37303 -71.00861 28 ft 1 kts 96°
2026-05-05 03:24 42.37301 -71.00857 27 ft 1 kts 110°
2026-05-05 03:24 42.37299 -71.00853 26 ft 0 kts 118°
2026-05-05 03:24 42.37297 -71.00849 24 ft 0 kts 124°
2026-05-05 03:25 42.37297 -71.00848 24 ft 0 kts 126°
2026-05-05 03:26 42.37295 -71.00845 25 ft 1 kts 126°
2026-05-05 03:26 42.37291 -71.00838 25 ft 1 kts 126°
2026-05-05 03:27 42.37280 -71.00818 29 ft 4 kts 128°
2026-05-05 03:27 42.37253 -71.00781 29 ft 7 kts 141°
2026-05-05 03:27 42.37202 -71.00758 28 ft 8 kts 185°
2026-05-05 03:27 42.37149 -71.00783 26 ft 8 kts 201°
2026-05-05 03:28 42.37097 -71.00808 27 ft 8 kts 199°
2026-05-05 03:28 42.37009 -71.00850 25 ft 36 kts 200°
2026-05-05 03:28 42.36497 -71.01099 25 ft 118 kts 200°
2026-05-05 03:28 42.35529 -71.01587 241 ft 167 kts 202°
2026-05-05 03:29 42.34375 -71.02032 1159 ft 178 kts 189°
2026-05-05 03:29 42.33138 -71.01668 2190 ft 195 kts 159°
2026-05-05 03:29 42.32099 -71.00338 3015 ft 220 kts 131°
2026-05-05 03:29 42.31412 -70.98410 3709 ft 236 kts 115°
2026-05-05 03:30 42.30879 -70.96307 4451 ft 242 kts 113°
2026-05-05 03:30 42.30330 -70.94149 5232 ft 243 kts 115°
2026-05-05 03:30 42.29693 -70.92012 5933 ft 250 kts 115°
2026-05-05 03:30 42.29029 -70.89752 6399 ft 269 kts 112°
2026-05-05 03:31 42.28390 -70.87245 6714 ft 291 kts 110°
2026-05-05 03:31 42.27726 -70.84634 7439 ft 295 kts 111°
2026-05-05 03:31 42.27018 -70.82013 8194 ft 299 kts 112°
2026-05-05 03:31 42.26265 -70.79384 9001 ft 301 kts 113°
2026-05-05 03:32 42.25489 -70.76780 9775 ft 304 kts 114°
2026-05-05 03:32 42.24669 -70.74112 10354 ft 314 kts 114°
2026-05-05 03:32 42.23786 -70.71298 10525 ft 338 kts 114°
2026-05-05 03:32 42.22828 -70.68288 10721 ft 358 kts 114°
2026-05-05 03:33 42.21821 -70.65149 11017 ft 370 kts 115°
2026-05-05 03:33 42.20780 -70.61918 11006 ft 379 kts 115°
2026-05-05 03:33 42.19722 -70.58647 11012 ft 379 kts 115°
2026-05-05 03:33 42.18668 -70.55397 11016 ft 378 kts 115°
2026-05-05 03:34 42.17615 -70.52157 11014 ft 378 kts 115°
2026-05-05 03:34 42.16559 -70.48915 11022 ft 378 kts 115°
2026-05-05 03:34 42.15513 -70.45707 11026 ft 378 kts 115°
2026-05-05 03:34 42.14450 -70.42453 11024 ft 379 kts 115°
2026-05-05 03:35 42.13387 -70.39203 11027 ft 379 kts 115°
2026-05-05 03:35 42.12321 -70.35944 11026 ft 380 kts 115°
2026-05-05 03:35 42.11250 -70.32678 11028 ft 381 kts 115°
2026-05-05 03:35 42.10182 -70.29421 11048 ft 380 kts 115°
2026-05-05 03:36 42.09113 -70.26166 11055 ft 379 kts 115°
2026-05-05 03:36 42.08047 -70.22927 11052 ft 378 kts 115°
2026-05-05 03:36 42.06981 -70.19687 11054 ft 378 kts 115°
2026-05-05 03:36 42.05915 -70.16452 11055 ft 378 kts 115°
2026-05-05 03:37 42.04865 -70.13267 11056 ft 377 kts 115°
2026-05-05 03:37 42.03798 -70.10040 11052 ft 378 kts 115°
2026-05-05 03:37 42.02662 -70.06899 11039 ft 366 kts 125°
2026-05-05 03:37 42.00948 -70.04515 11054 ft 347 kts 147°
2026-05-05 03:38 41.98857 -70.03014 10792 ft 336 kts 165°
2026-05-05 03:38 41.96635 -70.02269 10653 ft 322 kts 172°
2026-05-05 03:38 41.94453 -70.01708 10475 ft 314 kts 173°
2026-05-05 03:38 41.92333 -70.01194 10336 ft 305 kts 174°
2026-05-05 03:39 41.90275 -70.00696 10219 ft 296 kts 174°
2026-05-05 03:39 41.88279 -70.00207 10091 ft 288 kts 173°
2026-05-05 03:39 41.86372 -69.99735 9831 ft 285 kts 172°
2026-05-05 03:39 41.84452 -69.99255 9530 ft 283 kts 172°
2026-05-05 03:40 41.82518 -69.98770 9248 ft 281 kts 173°
2026-05-05 03:40 41.80607 -69.98284 8966 ft 278 kts 173°
2026-05-05 03:40 41.78711 -69.97801 8692 ft 276 kts 172°
2026-05-05 03:40 41.76827 -69.97323 8414 ft 274 kts 172°
2026-05-05 03:41 41.74950 -69.96848 8138 ft 273 kts 174°
2026-05-05 03:41 41.73089 -69.96374 7862 ft 271 kts 172°
2026-05-05 03:41 41.71239 -69.95902 7591 ft 269 kts 172°
2026-05-05 03:41 41.69400 -69.95433 7314 ft 268 kts 172°
2026-05-05 03:42 41.67600 -69.94975 7042 ft 266 kts 173°
2026-05-05 03:42 41.65784 -69.94513 6779 ft 265 kts 174°
2026-05-05 03:42 41.63978 -69.94054 6504 ft 263 kts 173°
2026-05-05 03:42 41.62182 -69.93596 6242 ft 262 kts 173°
2026-05-05 03:43 41.60397 -69.93142 5963 ft 260 kts 174°
2026-05-05 03:43 41.58624 -69.92693 5694 ft 258 kts 174°
2026-05-05 03:43 41.56863 -69.92246 5431 ft 257 kts 174°
2026-05-05 03:43 41.55114 -69.91802 5175 ft 255 kts 174°
2026-05-05 03:44 41.53361 -69.91359 4872 ft 256 kts 174°
2026-05-05 03:44 41.51610 -69.90915 4588 ft 255 kts 174°
2026-05-05 03:44 41.49894 -69.90480 4319 ft 253 kts 174°
2026-05-05 03:44 41.48177 -69.90044 4067 ft 251 kts 174°
2026-05-05 03:45 41.46465 -69.89611 3818 ft 249 kts 174°
2026-05-05 03:45 41.44771 -69.89182 3607 ft 245 kts 174°
2026-05-05 03:45 41.43144 -69.88767 3481 ft 231 kts 175°
2026-05-05 03:45 41.41599 -69.88375 3378 ft 222 kts 175°
2026-05-05 03:46 41.40120 -69.88088 3283 ft 203 kts 189°
2026-05-05 03:46 41.38950 -69.88753 3243 ft 177 kts 226°
2026-05-05 03:46 41.38021 -69.89826 3206 ft 175 kts 221°
2026-05-05 03:46 41.37125 -69.90813 3105 ft 161 kts 224°
2026-05-05 03:47 41.36348 -69.91780 2926 ft 145 kts 226°
2026-05-05 03:47 41.35657 -69.92682 2760 ft 137 kts 227°
2026-05-05 03:47 41.34988 -69.93567 2570 ft 134 kts 227°
2026-05-05 03:47 41.34333 -69.94435 2393 ft 130 kts 228°
2026-05-05 03:48 41.33700 -69.95276 2217 ft 126 kts 228°
2026-05-05 03:48 41.33076 -69.96106 2048 ft 128 kts 228°
2026-05-05 03:48 41.32455 -69.96932 1888 ft 126 kts 229°
2026-05-05 03:48 41.31842 -69.97747 1707 ft 123 kts 229°
2026-05-05 03:49 41.31238 -69.98551 1538 ft 121 kts 228°
2026-05-05 03:49 41.30637 -69.99349 1379 ft 124 kts 227°
2026-05-05 03:49 41.30022 -70.00168 1205 ft 126 kts 226°
2026-05-05 03:49 41.29401 -70.00989 1040 ft 127 kts 227°
2026-05-05 03:50 41.28770 -70.01840 879 ft 130 kts 226°
2026-05-05 03:50 41.28119 -70.02707 693 ft 131 kts 225°
2026-05-05 03:50 41.27488 -70.03572 517 ft 129 kts 223°
2026-05-05 03:50 41.26817 -70.04402 285 ft 136 kts 221°
2026-05-05 03:51 41.26214 -70.05361 168 ft 142 kts 235°
2026-05-05 03:51 41.25623 -70.06507 1040 ft 144 kts 233°
2026-05-05 03:51 41.24883 -70.07581 1644 ft 189 kts 227°
2026-05-05 03:51 41.23890 -70.08871 2263 ft 206 kts 226°
2026-05-05 03:52 41.22817 -70.10184 2278 ft 209 kts 225°
2026-05-05 03:52 41.21744 -70.11464 2272 ft 205 kts 225°
2026-05-05 03:52 41.20708 -70.12727 2293 ft 199 kts 226°
2026-05-05 03:52 41.19704 -70.13981 2302 ft 198 kts 226°
2026-05-05 03:53 41.18712 -70.15240 2312 ft 197 kts 226°
2026-05-05 03:53 41.17731 -70.16503 2305 ft 196 kts 227°
2026-05-05 03:53 41.16760 -70.17768 2304 ft 195 kts 227°
2026-05-05 03:53 41.15793 -70.19034 2293 ft 194 kts 227°
2026-05-05 03:54 41.14835 -70.20294 2295 ft 193 kts 227°
2026-05-05 03:54 41.13884 -70.21548 2313 ft 195 kts 227°
2026-05-05 03:54 41.12914 -70.22827 2319 ft 198 kts 227°
2026-05-05 03:54 41.11935 -70.24113 2312 ft 198 kts 225°
2026-05-05 03:55 41.10699 -70.24912 2319 ft 206 kts 190°
2026-05-05 03:55 41.09271 -70.24649 2246 ft 219 kts 156°
2026-05-05 03:55 41.08311 -70.23100 2300 ft 224 kts 111°
2026-05-05 03:55 41.08410 -70.21082 2293 ft 223 kts 62°
2026-05-05 03:56 41.09468 -70.19777 2306 ft 206 kts 11°
2026-05-05 03:56 41.10824 -70.19594 2323 ft 195 kts 353°
2026-05-05 03:56 41.12199 -70.19484 2311 ft 199 kts 359°
2026-05-05 03:56 41.13579 -70.19176 2305 ft 203 kts
2026-05-05 03:57 41.14933 -70.18557 2286 ft 209 kts 20°
2026-05-05 03:57 41.16192 -70.17578 2168 ft 210 kts 30°
2026-05-05 03:57 41.17331 -70.16416 2091 ft 206 kts 35°
2026-05-05 03:57 41.18416 -70.15165 1776 ft 204 kts 39°
2026-05-05 03:58 41.19426 -70.13968 1738 ft 187 kts 37°
2026-05-05 03:58 41.20391 -70.12809 1671 ft 188 kts 38°
2026-05-05 03:58 41.21367 -70.11631 1342 ft 190 kts 41°
2026-05-05 03:58 41.22307 -70.10421 895 ft 188 kts 43°
2026-05-05 03:59 41.23222 -70.09222 490 ft 180 kts 46°
2026-05-05 03:59 41.24076 -70.08085 218 ft 166 kts 46°
2026-05-05 03:59 41.24880 -70.07010 51 ft 163 kts 46°
2026-05-05 03:59 41.25513 -70.06160 43 ft 74 kts 44°
2026-05-05 04:00 41.25702 -70.05916 44 ft 28 kts 45°
2026-05-05 04:00 41.25805 -70.05780 43 ft 11 kts 45°
2026-05-05 04:00 41.25861 -70.05708 43 ft 11 kts 42°
2026-05-05 04:00 41.25932 -70.05678 44 ft 11 kts 348°
2026-05-05 04:01 41.25973 -70.05749 45 ft 11 kts 258°
2026-05-05 04:01 41.25928 -70.05823 45 ft 10 kts 226°
2026-05-05 04:01 41.25878 -70.05891 45 ft 10 kts 226°
2026-05-05 04:01 41.25829 -70.05955 43 ft 10 kts 223°
2026-05-05 04:02 41.25780 -70.06017 45 ft 10 kts 224°
2026-05-05 04:02 41.25734 -70.06079 45 ft 9 kts 225°
2026-05-05 04:02 41.25739 -70.06151 44 ft 9 kts 310°
2026-05-05 04:02 41.25744 -70.06221 45 ft 6 kts 233°
2026-05-05 04:03 41.25730 -70.06241 45 ft 0 kts 223°
2026-05-05 04:10 41.25731 -70.06241 45 ft 0 kts 223°
2026-05-05 04:14 41.25731 -70.06240 45 ft 0 kts 223°
2026-05-05 04:24 41.25732 -70.06240 45 ft 0 kts 223°
2026-05-05 04:25 41.25732 -70.06239 45 ft 0 kts 223°
2026-05-05 04:35 41.25732 -70.06238 45 ft 0 kts 223°
2026-05-05 04:37 41.25733 -70.06238 45 ft 0 kts 223°
2026-05-05 04:45 41.25733 -70.06237 45 ft 0 kts 223°
2026-05-05 04:50 41.25734 -70.06237 45 ft 0 kts 223°
2026-05-05 04:56 41.25734 -70.06236 45 ft 0 kts 223°